Change the Weather History Date:

Wednesday, February 20, 2013

  Actual Average Record
Temperature  
Mean Temperature 66 °F -  
Max Temperature 70 °F 68 °F 85 °F (1986)
Min Temperature 62 °F 53 °F 36 °F (1978)
Cooling Degree Days 1    
Growing Degree Days 16 (Base 50)    
Moisture  
Dew Point 63 °F    
Average Humidity 87    
Maximum Humidity 94    
Minimum Humidity 75    
Precipitation  
Precipitation 0.00 in - - ()
Sea Level Pressure  
Sea Level Pressure 29.88 in    
Wind  
Wind Speed 12 mph (ESE)    
Max Wind Speed 18 mph    
Max Gust Speed 26 mph    
Visibility 7 miles    
Events      
Averages and records for this station are not official NWS values.
T = Trace of Precipitation, MM = Missing Value Source: NWS Daily Summary

Daily Weather History Graph

Daily Weather History Graph

Search for Another Location

Airport or City:

Trip Planner

Search our weather history database for the weather conditions in past years. The results will help you decide how hot, cold, wet, or windy it might be!

Date:

Astronomy

Feb. 20, 2013 Rise Set
Actual Time 7:01 AM CST 6:22 PM CST
Civil Twilight 6:37 AM CST 6:46 PM CST
Nautical Twilight 6:10 AM CST 7:14 PM CST
Astronomical Twilight 5:42 AM CST 7:41 PM CST
Moon 1:59 PM CST (2/20) 3:07 AM CST (2/20)
Length of Visible Light 12h 09m
Length of Day
11h 21m
Waxing Gibbous, 76% of the Moon is Illuminated
Feb 20
Waxing Gibbous
Feb 25
Full
Mar 4
Last Quarter
Mar 11
New
Mar 19
First Quarter

Hourly Weather History & Observations

Time (CST) Temp. Dew Point Humidity Pressure Visibility Wind Dir Wind Speed Gust Speed Precip Events Conditions
12:53 AM 63.0 °F 55.0 °F 75% 30.03 in 10.0 mi East 16.1 mph - N/A   Clear
1:53 AM 62.1 °F 55.9 °F 80% 30.04 in 10.0 mi ESE 10.4 mph - N/A   Clear
2:53 AM 63.0 °F 57.0 °F 81% 30.04 in 10.0 mi East 5.8 mph - N/A   Mostly Cloudy
3:45 AM 62.6 °F 57.2 °F 82% 30.04 in 10.0 mi East 4.6 mph - N/A   Overcast
3:53 AM 63.0 °F 57.9 °F 84% 30.05 in 10.0 mi ENE 5.8 mph - N/A   Overcast
4:53 AM 62.1 °F 57.9 °F 86% 30.02 in 10.0 mi NE 6.9 mph - 0.00 in   Overcast
5:53 AM 64.0 °F 59.0 °F 84% 30.00 in 10.0 mi East 10.4 mph - N/A   Overcast
6:53 AM 64.0 °F 60.1 °F 87% 29.98 in 10.0 mi East 11.5 mph - N/A   Overcast
7:53 AM 64.9 °F 61.0 °F 87% 29.99 in 7.0 mi ESE 12.7 mph - N/A   Overcast
8:53 AM 66.0 °F 62.1 °F 87% 29.98 in 7.0 mi ESE 15.0 mph - N/A   Overcast
10:53 AM 68.0 °F 64.0 °F 87% 29.93 in 7.0 mi SE 17.3 mph 24.2 mph N/A   Overcast
11:18 AM 68.0 °F 64.4 °F 88% 29.93 in 6.0 mi SE 15.0 mph - N/A   Overcast
11:53 AM 69.1 °F 64.0 °F 84% 29.94 in 6.0 mi SE 11.5 mph - N/A   Haze
12:42 PM 69.8 °F 64.4 °F 83% 29.90 in 6.0 mi SE 12.7 mph - N/A   Overcast
12:53 PM 69.1 °F 64.9 °F 87% 29.90 in 6.0 mi SE 12.7 mph - N/A   Overcast
1:53 PM 70.0 °F 64.9 °F 84% 29.87 in 6.0 mi SE 10.4 mph - N/A   Haze
2:53 PM 69.1 °F 64.9 °F 87% 29.83 in 6.0 mi SE 13.8 mph - N/A   Overcast
3:53 PM 69.1 °F 64.9 °F 87% 29.80 in 6.0 mi SE 15.0 mph - 0.00 in   Overcast
4:02 PM 69.8 °F 64.4 °F 83% 29.79 in 6.0 mi SE 15.0 mph - N/A   Overcast
4:32 PM 69.8 °F 64.4 °F 83% 29.78 in 6.0 mi SE 16.1 mph - N/A   Overcast
4:53 PM 69.1 °F 64.9 °F 87% 29.78 in 6.0 mi SE 11.5 mph - N/A   Overcast
5:53 PM 68.0 °F 64.9 °F 90% 29.77 in 6.0 mi SE 12.7 mph - N/A   Overcast
6:53 PM 68.0 °F 64.9 °F 90% 29.77 in 7.0 mi SE 13.8 mph - N/A   Overcast
7:53 PM 68.0 °F 66.0 °F 93% 29.77 in 6.0 mi SE 13.8 mph - 0.00 in   Overcast
8:37 PM 68.0 °F 66.2 °F 94% 29.76 in 6.0 mi SE 15.0 mph - N/A   Overcast
9:25 PM 68.0 °F 66.2 °F 94% 29.75 in 6.0 mi SE 16.1 mph 25.3 mph N/A   Overcast
9:53 PM 68.0 °F 66.0 °F 93% 29.75 in 6.0 mi SE 15.0 mph - N/A   Overcast
10:53 PM 68.0 °F 66.0 °F 93% 29.73 in 6.0 mi SE 18.4 mph 26.5 mph N/A   Overcast
11:50 PM 68.0 °F 66.2 °F 94% 29.71 in 6.0 mi SE 13.8 mph - N/A   Overcast
11:53 PM 68.0 °F 66.0 °F 93% 29.72 in 6.0 mi SE 13.8 mph - N/A   Overcast